SOYUZ-MS 13 (44437 NORAD) Tracking and Keplerian Element Data

This shows tracking and keplerian element data for the satellite.

Feedback or suggestion? Click here.




ElementValue
Catalog44437
NameSOYUZ-MS 13
Epoch Orbit3101
Epoch Day36.60022625
Epoch Year2020
RAAN284.4933
Inclination51.6436
Eccentricity0.0005313
Argument of Perigee230.66
Mean Anonmoly208.0697
Mean Motion15.49143427
Decay Rate1.054E-05
L11 44437U 19041A 20036.60022625 .00001054 00000-0 27188-4 0 9991
L22 44437 51.6436 284.4933 0005313 230.6600 208.0697 15.49143427 31018

Live tracking and technical data element details for SOYUZ-MS 13 (NORAD 44437). SOYUZ-MS 13 can be tracked NOW for your location showing map with azimuth and elevation plus other details from your city location.

Track the satellite on the map from your city or location and see movement details for azimuth, elevation, latitude, longitude, range, height, and movement on the map or in text.







IsCatalogInMostPopularTable: catalog: 44437, numindb: 69
Update: records affected: 1



GetName: 44437 SOYUZ-MS 13

Hit Count: updated at: Thu, 02 Apr 2020 12:48:43 GMT